[[{"header":{"parameterUnit":"m.s-1","parameterCategory":1,"la1":30.2991,"la2":30.254,"lo1":-89.0895,"lo2":-89.0444,"dy":0.0017,"dx":0.0017,"nx":28,"ny":28,"refTime":"2023-10-12T09:00:00:Z","depth":0,"parameterNumber":2,"parameterNumberName":"U-component_of_WINDS"},"data":[0,0,0,0,0,0,0,0,0,0,0,0,0,0,0,0,0,0,0,0,0,0,0,0,0,0,0,0,0,0,0,0,0,0,0,0,0,0,0,0,0,0,0,0,0,0,0,0,0,0,0,0,0,0,0,0,0,0,1.2125,1.2125,0,1.2074,1.2074,1.2073,1.2017,1.2016,1.2015,1.2015,1.1964,1.1963,1.1962,0,0,0,0,0,0,0,0,0,0,0,0,0,1.2178,1.2177,1.2125,1.2125,1.2124,1.2074,1.2074,1.2073,1.2017,1.2016,1.2015,1.2014,1.1964,1.1963,1.1962,0,0,0,0,0,0,0,0,0,0,0,0,0,1.2144,1.2177,1.2126,1.209,1.2087,1.2074,1.2073,1.2073,1.2017,1.2016,1.2015,1.2014,1.1964,1.1963,1.1962,1.1981,0,0,1.1959,1.1959,0,0,0,0,0,0,0,0,1.2146,1.2142,1.2096,1.2093,1.2089,1.2051,1.2073,1.2042,1.2018,1.2044,1.2015,1.2013,1.1994,1.199,1.1983,1.1978,1.1976,1.1959,1.1959,1.1958,1.1958,0,0,0,0,0,0,0,1.2148,1.2144,1.2105,1.2096,1.2091,1.2078,1.2072,1.2067,1.2026,1.2041,1.2037,1.2032,1.1991,1.1984,1.1982,1.1975,1.1959,1.1959,1.1958,1.1958,1.1985,1.1986,0,0,0,0,0,0,1.2156,1.2146,1.2107,1.2104,1.2115,1.2078,1.2071,1.2064,1.2026,1.2019,1.2033,1.2029,1.1986,1.1983,1.198,1.2,1.1958,1.1958,1.1957,1.1984,1.1986,1.1987,0,0,0,0,0,0,1.2157,1.2153,1.2109,1.2124,1.2117,1.2078,1.2071,1.2064,1.2057,1.202,1.2012,1.2033,1.1985,1.1981,1.1981,1.1997,1.1957,1.1956,1.1982,1.1984,1.1986,1.204,0,0,0,0,0,0,1.2159,1.2153,1.2159,1.2124,1.2117,1.2111,1.2072,1.2064,1.2055,1.205,1.2018,1.2011,1.1984,1.1983,1.198,1.1995,1.1956,1.1981,1.1983,1.1986,1.2037,1.2044,1.205,0,0,0,0,0,1.2161,1.2176,1.216,1.2155,1.2123,1.2112,1.2107,1.2075,1.2057,1.2063,1.2039,1.2012,1.1996,1.1983,1.198,1.1995,1.198,1.1983,1.1985,1.2034,1.2042,1.205,0,0,0,0,0,0,1.2214,1.2171,1.2152,1.2157,1.2139,1.2102,1.2109,1.2085,1.2072,1.2067,1.2029,1.2022,1.2027,1.2011,1.1998,1.2012,1.1984,1.1987,1.2022,1.203,1.2036,1.204,1.1955,0,0,0,0,0,1.2227,1.2221,1.2183,1.2191,1.2183,1.2148,1.2142,1.2119,1.2098,1.209,1.2066,1.2048,1.2039,1.2033,1.2023,1.2034,1.2028,1.2043,1.205,1.2055,1.2058,1.2065,1.2072,1.1996,1.1996,1.1996,0,0,1.2252,1.2228,1.2226,1.2201,1.2184,1.218,1.2141,1.2138,1.2134,1.2089,1.2088,1.2071,1.2048,1.2054,1.2056,1.2041,1.2077,1.2059,1.2064,1.2063,1.2068,1.2075,1.2082,1.1998,1.1998,1.1998,0,0,1.2297,1.2277,1.2282,1.2266,1.2241,1.2218,1.2219,1.2187,1.2173,1.2172,1.2139,1.2134,1.2119,1.2104,1.2095,1.2136,1.2111,1.2134,1.2167,1.2174,1.218,1.2185,1.2201,1.2207,1.2136,1.2137,1.2137,0,1.2331,1.2322,1.2288,1.2286,1.2277,1.2237,1.2242,1.2229,1.2202,1.2197,1.218,1.2161,1.2143,1.2146,1.2156,1.215,1.2151,1.2137,1.2182,1.2187,1.2191,1.2206,1.2212,1.2139,1.2139,1.2139,1.2139,0,1.2367,1.2362,1.2369,1.2344,1.2336,1.2338,1.2305,1.23,1.2279,1.2258,1.2258,1.2235,1.2219,1.2218,1.2197,1.2219,1.2211,1.2189,1.216,1.2202,1.2215,1.222,1.2144,1.2143,1.2142,1.2141,0,0,1.2443,1.24,1.2403,1.2392,1.2362,1.2357,1.2359,1.2344,1.2342,1.2325,1.2326,1.2314,1.2294,1.2284,1.2261,1.2267,1.2303,1.2244,1.2243,1.2257,1.2328,1.2345,1.2352,1.2286,1.2287,1.2288,1.233,0,1.2482,1.2481,1.2451,1.2459,1.2454,1.2417,1.2418,1.2401,1.2382,1.2376,1.2355,1.2348,1.2321,1.2315,1.2319,1.2297,1.2317,1.2294,1.2288,1.2288,1.2295,1.2358,1.2376,1.2417,1.2335,1.2336,1.2336,0,1.2528,1.2514,1.2521,1.2493,1.249,1.2491,1.2476,1.247,1.2451,1.2436,1.2426,1.24,1.24,1.2373,1.2374,1.236,1.2356,1.2345,1.2346,1.2344,1.2315,1.236,1.2429,1.2436,1.2344,1.2343,1.2343,0,1.2583,1.2567,1.2569,1.2561,1.2527,1.253,1.2516,1.2495,1.2488,1.2475,1.2471,1.2459,1.2452,1.2443,1.2415,1.2398,1.242,1.2391,1.241,1.2411,1.2416,1.2416,1.2487,1.2413,1.2413,1.2412,1.2412,0,1.2631,1.2637,1.2594,1.2596,1.2603,1.2569,1.2576,1.2559,1.2541,1.254,1.2506,1.2506,1.2469,1.2465,1.2443,1.2448,1.2445,1.2435,1.2429,1.2438,1.244,1.2435,1.2432,1.2414,1.2414,1.2413,1.2413,0,1.2694,1.2665,1.2666,1.2634,1.2627,1.2633,1.2607,1.2608,1.2587,1.2586,1.2584,1.2552,1.2546,1.2517,1.2504,1.2489,1.2502,1.249,1.2509,1.2505,1.2527,1.2526,1.2597,1.2606,1.2526,1.2526,1.2527,0,1.2726,1.273,1.27,1.2696,1.2684,1.2679,1.2673,1.264,1.2635,1.2613,1.2618,1.2609,1.26,1.2592,1.2568,1.2558,1.2546,1.2572,1.2544,1.2554,1.2548,1.2548,1.2549,1.2578,1.2579,1.258,1.2581,0,1.2787,1.2773,1.2765,1.2752,1.2745,1.2734,1.272,1.272,1.2684,1.268,1.2673,1.2666,1.2653,1.2645,1.2632,1.2619,1.2595,1.259,1.2594,1.2603,1.2615,1.261,1.2526,1.2588,1.2587,1.2587,1.2586,1.2586,1.2836,1.2839,1.2818,1.2811,1.2797,1.2786,1.2786,1.2766,1.2759,1.2746,1.2727,1.2724,1.2705,1.2685,1.2674,1.2671,1.2657,1.2663,1.2664,1.2667,1.2672,1.2615,1.2669,1.2668,1.2668,1.2668,1.2668,0,1.2897,1.2882,1.2875,1.2858,1.2852,1.2829,1.2814,1.2811,1.2808,1.2793,1.2785,1.2778,1.2771,1.2747,1.2738,1.274,1.2729,1.2739,1.2739,1.2737,1.2684,1.2682,1.2749,1.2749,1.2749,1.2749,1.2749,1.2749,1.2927,1.2931,1.2915,1.2912,1.2898,1.2893,1.2887,1.2877,1.2865,1.2859,1.2852,1.2837,1.2819,1.2808,1.2801,1.2794,1.2793,1.2807,1.2797,1.2748,1.274,1.2733,1.2731,1.2806,1.2807,1.285,1.285,1.285]},{"header":{"parameterUnit":"m.s-1","parameterCategory":1,"la1":30.2991,"la2":30.254,"lo1":-89.0895,"lo2":-89.0444,"dy":0.0017,"dx":0.0017,"nx":28,"ny":28,"refTime":"2023-10-12T09:00:00:Z","depth":0,"parameterNumber":3,"parameterNumberName":"V-component_of_WINDS"},"data":[0,0,0,0,0,0,0,0,0,0,0,0,0,0,0,0,0,0,0,0,0,0,0,0,0,0,0,0,0,0,0,0,0,0,0,0,0,0,0,0,0,0,0,0,0,0,0,0,0,0,0,0,0,0,0,0,0,0,-6.264,-6.2641,0,-6.2755,-6.2756,-6.2757,-6.271,-6.2707,-6.2705,-6.2702,-6.2811,-6.2817,-6.2822,0,0,0,0,0,0,0,0,0,0,0,0,0,-6.2373,-6.2378,-6.264,-6.2642,-6.2643,-6.2755,-6.2756,-6.2758,-6.271,-6.2707,-6.2704,-6.2701,-6.2809,-6.2816,-6.2822,0,0,0,0,0,0,0,0,0,0,0,0,0,-6.2488,-6.238,-6.264,-6.2633,-6.2634,-6.2754,-6.2756,-6.2758,-6.2711,-6.2707,-6.2703,-6.2699,-6.2807,-6.2815,-6.2823,-6.2955,0,0,-6.2848,-6.2852,0,0,0,0,0,0,0,0,-6.2482,-6.2498,-6.2633,-6.2634,-6.2635,-6.2714,-6.2702,-6.2824,-6.2712,-6.2681,-6.2702,-6.2697,-6.2782,-6.2792,-6.2822,-6.296,-6.2965,-6.2849,-6.2854,-6.2857,-6.286,0,0,0,0,0,0,0,-6.2474,-6.2493,-6.2685,-6.2635,-6.2636,-6.2622,-6.2634,-6.2725,-6.2753,-6.2684,-6.2681,-6.2695,-6.2781,-6.2814,-6.2824,-6.2966,-6.2849,-6.2856,-6.2861,-6.2864,-6.3218,-6.3222,0,0,0,0,0,0,-6.2467,-6.2486,-6.2681,-6.2689,-6.2547,-6.263,-6.2643,-6.2692,-6.2752,-6.2757,-6.2699,-6.2693,-6.2802,-6.2815,-6.2828,-6.2986,-6.2857,-6.2865,-6.287,-6.3213,-6.3219,-6.3224,0,0,0,0,0,0,-6.2461,-6.2484,-6.2677,-6.2587,-6.261,-6.2639,-6.2695,-6.2697,-6.273,-6.2763,-6.2767,-6.2728,-6.2799,-6.2816,-6.2924,-6.2989,-6.2869,-6.2876,-6.3208,-6.3215,-6.3221,-6.3303,0,0,0,0,0,0,-6.2454,-6.2483,-6.2535,-6.2588,-6.2615,-6.2774,-6.2699,-6.2702,-6.2745,-6.2738,-6.2791,-6.2796,-6.2798,-6.2912,-6.2932,-6.2998,-6.2882,-6.3202,-6.3211,-6.3219,-6.3295,-6.3312,-6.3327,0,0,0,0,0,-6.2444,-6.2551,-6.2538,-6.2561,-6.2681,-6.2778,-6.2793,-6.2795,-6.275,-6.2802,-6.2823,-6.2794,-6.2979,-6.2924,-6.2946,-6.3015,-6.3198,-6.3209,-6.3218,-6.3288,-6.3309,-6.3326,0,0,0,0,0,0,-6.2501,-6.2558,-6.2544,-6.2672,-6.2721,-6.277,-6.2835,-6.2817,-6.2877,-6.2868,-6.2866,-6.2878,-6.299,-6.3013,-6.2951,-6.3145,-6.3081,-6.3096,-6.3126,-6.3146,-6.3162,-6.3154,-6.2889,0,0,0,0,0,-6.2529,-6.2606,-6.265,-6.2759,-6.2784,-6.2806,-6.2848,-6.2846,-6.2895,-6.2914,-6.2943,-6.299,-6.3059,-6.3104,-6.3168,-6.3298,-6.3308,-6.3356,-6.3372,-6.3385,-6.3398,-6.3468,-6.349,-6.3257,-6.3257,-6.3257,0,0,-6.2587,-6.2627,-6.2675,-6.2771,-6.2809,-6.2886,-6.2823,-6.2907,-6.2963,-6.2926,-6.3031,-6.3054,-6.3106,-6.3225,-6.3279,-6.3248,-6.3465,-6.3398,-6.3408,-6.3414,-6.3481,-6.3503,-6.3522,-6.3264,-6.3263,-6.3261,0,0,-6.2732,-6.277,-6.2866,-6.2906,-6.2965,-6.2978,-6.3001,-6.3053,-6.3068,-6.3174,-6.3148,-6.3213,-6.3332,-6.337,-6.3405,-6.3565,-6.3541,-6.3586,-6.3669,-6.3737,-6.3756,-6.3772,-6.3829,-6.385,-6.3599,-6.3599,-6.3599,0,-6.2795,-6.2913,-6.2916,-6.3003,-6.3046,-6.3019,-6.3114,-6.3151,-6.3227,-6.3256,-6.3221,-6.337,-6.3402,-6.3531,-6.357,-6.3599,-6.3624,-6.358,-6.3753,-6.377,-6.3785,-6.3839,-6.3861,-6.3604,-6.3604,-6.3603,-6.3603,0,-6.2988,-6.307,-6.3139,-6.3217,-6.3267,-6.3358,-6.3373,-6.3423,-6.3416,-6.3433,-6.354,-6.3579,-6.3652,-6.3682,-6.3675,-6.3809,-6.3788,-6.3753,-6.3689,-6.3812,-6.3863,-6.3884,-6.3612,-6.361,-6.3608,-6.3607,0,0,-6.3171,-6.3251,-6.3276,-6.3312,-6.3375,-6.3437,-6.3526,-6.36,-6.3643,-6.3696,-6.3769,-6.387,-6.3839,-6.3879,-6.3876,-6.3936,-6.4061,-6.3893,-6.3895,-6.3923,-6.4211,-6.4237,-6.4261,-6.4045,-6.4049,-6.4052,-6.4206,0,-6.332,-6.348,-6.3486,-6.363,-6.3705,-6.3681,-6.3758,-6.3804,-6.3822,-6.3886,-6.3904,-6.3977,-6.393,-6.3954,-6.4012,-6.4033,-6.4118,-6.4022,-6.4111,-6.4115,-6.41,-6.4288,-6.4315,-6.4459,-6.4226,-6.423,-6.4232,0,-6.3516,-6.358,-6.3732,-6.3786,-6.3818,-6.3888,-6.3956,-6.4019,-6.407,-6.4078,-6.4124,-6.4112,-6.4201,-6.4134,-6.4255,-6.419,-6.4226,-6.4242,-6.4248,-6.4256,-6.4181,-6.4301,-6.4505,-6.4526,-6.4264,-6.4261,-6.4259,0,-6.3635,-6.3757,-6.3865,-6.3896,-6.3961,-6.4011,-6.404,-6.4087,-6.4132,-6.419,-6.4219,-6.4286,-6.4323,-6.4374,-6.438,-6.4331,-6.4502,-6.4436,-6.451,-6.451,-6.4547,-6.4545,-6.476,-6.4571,-6.4571,-6.457,-6.457,0,-6.3801,-6.3895,-6.392,-6.3986,-6.409,-6.4095,-6.4197,-6.4222,-6.4265,-6.4333,-6.4315,-6.4379,-6.4384,-6.445,-6.4455,-6.4554,-6.457,-6.4578,-6.4579,-6.458,-6.4579,-6.4604,-6.4594,-6.4576,-6.4575,-6.4574,-6.4573,0,-6.3951,-6.3971,-6.4087,-6.4141,-6.4156,-6.4231,-6.4275,-6.4337,-6.4354,-6.4441,-6.4461,-6.4487,-6.4563,-6.4575,-6.4663,-6.4666,-6.4785,-6.4775,-6.4769,-6.4768,-6.4842,-6.4835,-6.508,-6.5113,-6.4903,-6.4905,-6.4906,0,-6.4056,-6.4129,-6.4191,-6.4238,-6.427,-6.4345,-6.4391,-6.4398,-6.4446,-6.4511,-6.4565,-6.464,-6.47,-6.4822,-6.4847,-6.4914,-6.4905,-6.4987,-6.4915,-6.4915,-6.4906,-6.4902,-6.4909,-6.5,-6.5003,-6.5005,-6.5006,0,-6.424,-6.4247,-6.4316,-6.4389,-6.4446,-6.4502,-6.4556,-6.4594,-6.4608,-6.4663,-6.4742,-6.4789,-6.4881,-6.4955,-6.5023,-6.5049,-6.503,-6.5029,-6.505,-6.5052,-6.5046,-6.505,-6.4807,-6.5023,-6.5021,-6.502,-6.5019,-6.5018,-6.4371,-6.4435,-6.449,-6.4567,-6.4609,-6.466,-6.4721,-6.4747,-6.4814,-6.4892,-6.4891,-6.4978,-6.5026,-6.5115,-6.5147,-6.5213,-6.5186,-6.5217,-6.5224,-6.5232,-6.5239,-6.5036,-6.5225,-6.5225,-6.5224,-6.5224,-6.5224,0,-6.4555,-6.4589,-6.4661,-6.4738,-6.4799,-6.4778,-6.4837,-6.4888,-6.4966,-6.5014,-6.5075,-6.5166,-6.5238,-6.5269,-6.5339,-6.5387,-6.5379,-6.5405,-6.5401,-6.5408,-6.5259,-6.5234,-6.5409,-6.5409,-6.5409,-6.5409,-6.5409,-6.5409,-6.4657,-6.4765,-6.4778,-6.4905,-6.4938,-6.5026,-6.5061,-6.5107,-6.5146,-6.525,-6.5311,-6.5332,-6.5373,-6.5446,-6.5511,-6.5518,-6.5544,-6.5573,-6.5576,-6.5437,-6.5418,-6.54,-6.5377,-6.5579,-6.5579,-6.572,-6.5721,-6.5722]}]]